Time,TemperatureF,DewpointF,PressureIn,WindDirection,WindDirectionDegrees,WindSpeedMPH,WindSpeedGustMPH,Humidity,HourlyPrecipIn,Conditions,Clouds,dailyrainin,SoftwareType,DateUTC
2013-10-18 00:05:00,66.0,65.0,29.87,ESE,119,0.0,0.0,96,0.00,,,0.00,weatherlink.com 1.10,2013-10-18 04:05:00,
2013-10-18 00:20:00,65.5,64.0,29.86,ESE,119,0.0,0.0,96,0.00,,,0.00,weatherlink.com 1.10,2013-10-18 04:20:00,
2013-10-18 00:35:00,65.0,64.0,29.86,ESE,119,0.0,0.0,96,0.00,,,0.00,weatherlink.com 1.10,2013-10-18 04:35:00,
2013-10-18 00:50:00,64.7,64.0,29.86,ESE,119,0.0,0.0,96,0.00,,,0.00,weatherlink.com 1.10,2013-10-18 04:50:00,
2013-10-18 01:05:00,64.5,63.0,29.86,ESE,119,0.0,0.0,96,0.00,,,0.00,weatherlink.com 1.10,2013-10-18 05:05:00,
2013-10-18 01:20:00,64.3,63.0,29.86,ESE,119,0.0,0.0,96,0.00,,,0.00,weatherlink.com 1.10,2013-10-18 05:20:00,
2013-10-18 01:35:00,64.3,64.0,29.87,ESE,119,0.0,0.0,97,0.00,,,0.00,weatherlink.com 1.10,2013-10-18 05:35:00,
2013-10-18 01:50:00,64.5,64.0,29.87,ESE,119,0.0,0.0,97,0.00,,,0.00,weatherlink.com 1.10,2013-10-18 05:50:00,
2013-10-18 02:05:00,64.5,64.0,29.87,ESE,119,0.0,0.0,97,0.00,,,0.00,weatherlink.com 1.10,2013-10-18 06:05:00,
2013-10-18 02:20:00,64.5,64.0,29.87,ESE,119,0.0,0.0,97,0.00,,,0.00,weatherlink.com 1.10,2013-10-18 06:20:00,
2013-10-18 02:35:00,64.5,64.0,29.87,ESE,119,0.0,0.0,98,0.00,,,0.00,weatherlink.com 1.10,2013-10-18 06:35:00,
2013-10-18 02:50:00,64.3,64.0,29.87,ESE,119,0.0,0.0,98,0.00,,,0.00,weatherlink.com 1.10,2013-10-18 06:50:00,
2013-10-18 03:05:00,64.3,64.0,29.87,ESE,119,0.0,0.0,98,0.00,,,0.00,weatherlink.com 1.10,2013-10-18 07:05:00,
2013-10-18 03:20:00,64.2,64.0,29.87,ESE,119,0.0,0.0,98,0.00,,,0.00,weatherlink.com 1.10,2013-10-18 07:20:00,
2013-10-18 03:35:00,64.0,64.0,29.88,ESE,119,0.0,0.0,98,0.00,,,0.00,weatherlink.com 1.10,2013-10-18 07:35:00,
2013-10-18 03:50:00,63.9,63.0,29.88,ESE,119,0.0,0.0,98,0.00,,,0.00,weatherlink.com 1.10,2013-10-18 07:50:00,
2013-10-18 04:05:00,63.9,63.0,29.88,ESE,119,0.0,0.0,98,0.00,,,0.00,weatherlink.com 1.10,2013-10-18 08:05:00,
2013-10-18 04:20:00,63.5,63.0,29.87,ESE,119,0.0,0.0,98,0.00,,,0.00,weatherlink.com 1.10,2013-10-18 08:20:00,
2013-10-18 04:35:00,63.5,63.0,29.88,ESE,119,0.0,0.0,98,0.00,,,0.00,weatherlink.com 1.10,2013-10-18 08:35:00,
2013-10-18 04:50:00,63.4,63.0,29.88,ESE,119,0.0,0.0,98,0.00,,,0.00,weatherlink.com 1.10,2013-10-18 08:50:00,
2013-10-18 05:05:00,63.4,63.0,29.89,ESE,119,0.0,1.0,98,0.00,,,0.00,weatherlink.com 1.10,2013-10-18 09:05:00,
2013-10-18 05:20:00,62.3,62.0,29.89,ESE,119,0.0,0.0,97,0.00,,,0.00,weatherlink.com 1.10,2013-10-18 09:20:00,
2013-10-18 05:35:00,61.0,60.0,29.91,ESE,111,0.0,0.0,95,0.00,,,0.00,weatherlink.com 1.10,2013-10-18 09:35:00,
2013-10-18 05:50:00,60.2,59.0,29.91,ESE,111,0.0,0.0,94,0.00,,,0.00,weatherlink.com 1.10,2013-10-18 09:50:00,
2013-10-18 06:05:00,59.6,58.0,29.91,ESE,111,0.0,0.0,94,0.00,,,0.00,weatherlink.com 1.10,2013-10-18 10:05:00,
2013-10-18 06:20:00,59.2,58.0,29.91,ESE,111,0.0,0.0,94,0.00,,,0.00,weatherlink.com 1.10,2013-10-18 10:20:00,
2013-10-18 06:35:00,58.9,58.0,29.91,ESE,111,0.0,0.0,95,0.00,,,0.00,weatherlink.com 1.10,2013-10-18 10:35:00,
2013-10-18 06:50:00,58.4,57.0,29.92,ESE,111,0.0,0.0,94,0.00,,,0.00,weatherlink.com 1.10,2013-10-18 10:50:00,
2013-10-18 07:05:00,58.0,56.0,29.92,ESE,111,0.0,1.0,94,0.00,,,0.00,weatherlink.com 1.10,2013-10-18 11:05:00,
2013-10-18 07:20:00,57.5,56.0,29.92,ESE,111,0.0,0.0,94,0.00,,,0.00,weatherlink.com 1.10,2013-10-18 11:20:00,
2013-10-18 07:35:00,57.0,55.0,29.93,ESE,111,0.0,0.0,94,0.00,,,0.00,weatherlink.com 1.10,2013-10-18 11:35:00,
2013-10-18 07:50:00,56.9,55.0,29.94,ESE,111,0.0,1.0,94,0.00,,,0.00,weatherlink.com 1.10,2013-10-18 11:50:00,
2013-10-18 08:05:00,56.7,55.0,29.94,NNW,346,0.0,0.0,93,0.00,,,0.00,weatherlink.com 1.10,2013-10-18 12:05:00,
2013-10-18 08:20:00,56.6,54.0,29.95,North,360,0.0,1.0,89,0.00,,,0.00,weatherlink.com 1.10,2013-10-18 12:20:00,
2013-10-18 08:35:00,56.5,53.0,29.97,NE,35,0.0,2.0,87,0.00,,,0.00,weatherlink.com 1.10,2013-10-18 12:35:00,
2013-10-18 08:50:00,56.9,52.0,29.97,North,11,0.0,3.0,83,0.00,,,0.00,weatherlink.com 1.10,2013-10-18 12:50:00,
2013-10-18 09:05:00,58.9,53.0,29.98,ENE,78,1.0,2.0,80,0.00,,,0.00,weatherlink.com 1.10,2013-10-18 13:05:00,
2013-10-18 09:20:00,59.5,51.0,29.98,East,88,0.0,2.0,74,0.00,,,0.00,weatherlink.com 1.10,2013-10-18 13:20:00,
2013-10-18 09:35:00,59.5,52.0,29.99,West,275,3.0,6.0,75,0.00,,,0.00,weatherlink.com 1.10,2013-10-18 13:35:00,
2013-10-18 09:50:00,59.6,52.0,30.00,NE,47,0.0,4.0,76,0.00,,,0.00,weatherlink.com 1.10,2013-10-18 13:50:00,
2013-10-18 10:05:00,60.1,51.0,30.00,SE,145,0.0,5.0,72,0.00,,,0.00,weatherlink.com 1.10,2013-10-18 14:05:00,
2013-10-18 10:20:00,61.0,51.0,30.00,SSE,165,0.0,2.0,70,0.00,,,0.00,weatherlink.com 1.10,2013-10-18 14:20:00,
2013-10-18 10:35:00,61.8,52.0,30.00,North,5,0.0,3.0,70,0.00,,,0.00,weatherlink.com 1.10,2013-10-18 14:35:00,
2013-10-18 10:50:00,62.0,52.0,30.01,West,280,0.0,2.0,71,0.00,,,0.00,weatherlink.com 1.10,2013-10-18 14:50:00,
2013-10-18 11:05:00,62.4,51.0,30.00,ENE,73,1.0,2.0,66,0.00,,,0.00,weatherlink.com 1.10,2013-10-18 15:05:00,
2013-10-18 11:20:00,63.1,52.0,30.00,NE,44,0.0,2.0,67,0.00,,,0.00,weatherlink.com 1.10,2013-10-18 15:20:00,
2013-10-18 11:35:00,63.5,51.0,30.00,ESE,115,1.0,2.0,65,0.00,,,0.00,weatherlink.com 1.10,2013-10-18 15:35:00,
2013-10-18 11:50:00,63.9,51.0,30.00,ESE,112,2.0,3.0,63,0.00,,,0.00,weatherlink.com 1.10,2013-10-18 15:50:00,
2013-10-18 12:05:00,63.9,50.0,30.00,ENE,72,0.0,4.0,61,0.00,,,0.00,weatherlink.com 1.10,2013-10-18 16:05:00,
2013-10-18 12:20:00,64.3,50.0,30.00,North,11,0.0,1.0,61,0.00,,,0.00,weatherlink.com 1.10,2013-10-18 16:20:00,
2013-10-18 12:35:00,65.0,51.0,29.99,North,360,0.0,3.0,60,0.00,,,0.00,weatherlink.com 1.10,2013-10-18 16:35:00,
2013-10-18 12:50:00,65.2,53.0,29.99,SSE,163,0.0,3.0,64,0.00,,,0.00,weatherlink.com 1.10,2013-10-18 16:50:00,
2013-10-18 13:05:00,65.6,53.0,29.99,SE,134,1.0,2.0,63,0.00,,,0.00,weatherlink.com 1.10,2013-10-18 17:05:00,
2013-10-18 13:20:00,65.8,54.0,29.98,East,83,0.0,2.0,65,0.00,,,0.00,weatherlink.com 1.10,2013-10-18 17:20:00,
2013-10-18 13:35:00,65.6,53.0,29.97,ESE,103,0.0,2.0,64,0.00,,,0.00,weatherlink.com 1.10,2013-10-18 17:35:00,
2013-10-18 13:51:00,65.8,54.0,29.96,NE,46,0.0,3.0,65,0.00,,,0.00,weatherlink.com 1.10,2013-10-18 17:51:00,
2013-10-18 14:06:00,65.8,54.0,29.96,NE,46,0.0,1.0,67,0.00,,,0.00,weatherlink.com 1.10,2013-10-18 18:06:00,
2013-10-18 14:21:00,66.1,55.0,29.95,West,263,0.0,2.0,68,0.00,,,0.00,weatherlink.com 1.10,2013-10-18 18:21:00,
2013-10-18 14:36:00,66.3,55.0,29.95,West,263,0.0,0.0,68,0.00,,,0.00,weatherlink.com 1.10,2013-10-18 18:36:00,
2013-10-18 14:51:00,66.0,55.0,29.95,West,263,0.0,0.0,68,0.00,,,0.00,weatherlink.com 1.10,2013-10-18 18:51:00,
2013-10-18 15:06:00,66.0,55.0,29.94,North,9,0.0,3.0,68,0.00,,,0.00,weatherlink.com 1.10,2013-10-18 19:06:00,
2013-10-18 15:21:00,66.9,56.0,29.94,ESE,108,0.0,3.0,67,0.00,,,0.00,weatherlink.com 1.10,2013-10-18 19:21:00,
2013-10-18 15:36:00,66.6,56.0,29.94,ESE,102,0.0,2.0,68,0.00,,,0.00,weatherlink.com 1.10,2013-10-18 19:36:00,
2013-10-18 15:51:00,67.3,56.0,29.94,ENE,59,0.0,2.0,68,0.00,,,0.00,weatherlink.com 1.10,2013-10-18 19:51:00,
2013-10-18 16:06:00,66.9,57.0,29.94,SE,126,0.0,2.0,70,0.00,,,0.00,weatherlink.com 1.10,2013-10-18 20:06:00,
2013-10-18 16:21:00,66.9,56.0,29.94,ESE,117,0.0,2.0,69,0.00,,,0.00,weatherlink.com 1.10,2013-10-18 20:21:00,
2013-10-18 16:36:00,66.6,57.0,29.93,ESE,117,0.0,1.0,72,0.00,,,0.00,weatherlink.com 1.10,2013-10-18 20:36:00,
2013-10-18 16:51:00,66.4,56.0,29.93,ESE,117,0.0,1.0,70,0.00,,,0.00,weatherlink.com 1.10,2013-10-18 20:51:00,
2013-10-18 17:06:00,65.8,56.0,29.93,ESE,117,0.0,1.0,70,0.00,,,0.00,weatherlink.com 1.10,2013-10-18 21:06:00,
2013-10-18 17:21:00,65.6,55.0,29.93,ESE,106,0.0,0.0,69,0.00,,,0.00,weatherlink.com 1.10,2013-10-18 21:21:00,
2013-10-18 17:36:00,65.6,55.0,29.93,ESE,106,0.0,0.0,69,0.00,,,0.00,weatherlink.com 1.10,2013-10-18 21:36:00,
2013-10-18 17:51:00,65.2,56.0,29.93,ESE,106,0.0,0.0,72,0.00,,,0.00,weatherlink.com 1.10,2013-10-18 21:51:00,
2013-10-18 18:06:00,64.3,56.0,29.93,ESE,106,0.0,0.0,74,0.00,,,0.00,weatherlink.com 1.10,2013-10-18 22:06:00,
2013-10-18 18:21:00,63.5,56.0,29.94,ESE,106,0.0,0.0,76,0.00,,,0.00,weatherlink.com 1.10,2013-10-18 22:21:00,
2013-10-18 18:36:00,62.7,56.0,29.94,ESE,106,0.0,0.0,78,0.00,,,0.00,weatherlink.com 1.10,2013-10-18 22:36:00,
2013-10-18 18:51:00,62.1,56.0,29.94,ESE,106,0.0,0.0,80,0.00,,,0.00,weatherlink.com 1.10,2013-10-18 22:51:00,
2013-10-18 19:06:00,61.2,56.0,29.94,ESE,106,0.0,0.0,83,0.00,,,0.00,weatherlink.com 1.10,2013-10-18 23:06:00,
2013-10-18 19:21:00,60.5,56.0,29.94,ESE,106,0.0,0.0,84,0.00,,,0.00,weatherlink.com 1.10,2013-10-18 23:21:00,
2013-10-18 19:36:00,60.1,56.0,29.94,ESE,106,0.0,0.0,86,0.00,,,0.00,weatherlink.com 1.10,2013-10-18 23:36:00,
2013-10-18 19:51:00,59.5,56.0,29.94,ESE,106,0.0,0.0,87,0.00,,,0.00,weatherlink.com 1.10,2013-10-18 23:51:00,
2013-10-18 20:06:00,59.2,56.0,29.94,ESE,106,0.0,0.0,88,0.00,,,0.00,weatherlink.com 1.10,2013-10-19 00:06:00,
2013-10-18 20:21:00,58.7,56.0,29.95,ESE,106,0.0,0.0,89,0.00,,,0.00,weatherlink.com 1.10,2013-10-19 00:21:00,
2013-10-18 20:36:00,58.4,55.0,29.95,ESE,106,0.0,0.0,89,0.00,,,0.00,weatherlink.com 1.10,2013-10-19 00:36:00,
2013-10-18 20:51:00,58.1,55.0,29.95,ESE,106,0.0,0.0,90,0.00,,,0.00,weatherlink.com 1.10,2013-10-19 00:51:00,
2013-10-18 21:06:00,57.6,55.0,29.95,ESE,106,0.0,0.0,91,0.00,,,0.00,weatherlink.com 1.10,2013-10-19 01:06:00,
2013-10-18 21:21:00,57.5,55.0,29.95,ESE,106,0.0,0.0,92,0.00,,,0.00,weatherlink.com 1.10,2013-10-19 01:21:00,
2013-10-18 21:36:00,57.5,55.0,29.95,ESE,106,0.0,0.0,92,0.00,,,0.00,weatherlink.com 1.10,2013-10-19 01:36:00,
2013-10-18 21:51:00,57.2,55.0,29.95,ESE,106,0.0,0.0,92,0.00,,,0.00,weatherlink.com 1.10,2013-10-19 01:51:00,
2013-10-18 22:06:00,57.0,55.0,29.96,ESE,106,0.0,0.0,92,0.00,,,0.00,weatherlink.com 1.10,2013-10-19 02:06:00,
2013-10-18 22:21:00,56.7,55.0,29.96,ESE,106,0.0,0.0,92,0.00,,,0.00,weatherlink.com 1.10,2013-10-19 02:21:00,
2013-10-18 22:36:00,56.6,55.0,29.96,ESE,106,0.0,0.0,93,0.00,,,0.00,weatherlink.com 1.10,2013-10-19 02:36:00,
2013-10-18 22:51:00,56.5,55.0,29.96,ESE,106,0.0,0.0,93,0.00,,,0.00,weatherlink.com 1.10,2013-10-19 02:51:00,
2013-10-18 23:06:00,56.2,54.0,29.96,ESE,106,0.0,0.0,93,0.00,,,0.00,weatherlink.com 1.10,2013-10-19 03:06:00,
2013-10-18 23:21:00,56.0,54.0,29.96,ESE,106,0.0,0.0,94,0.00,,,0.00,weatherlink.com 1.10,2013-10-19 03:21:00,
2013-10-18 23:36:00,56.0,54.0,29.95,ESE,106,0.0,0.0,94,0.00,,,0.00,weatherlink.com 1.10,2013-10-19 03:36:00,
2013-10-18 23:51:00,56.0,55.0,29.95,ESE,106,0.0,0.0,95,0.00,,,0.00,weatherlink.com 1.10,2013-10-19 03:51:00,